Location: Bu�n Treun
(12.1333°N, 108.3167°E)
Time: 13:06:43
(UTC+00:00)

Cosmos 1709 Rocket - Pass Details

Date: 13 July 2020
Orbit: 948 x 1001 km, 82.9° (Epoch: 07 August)

Event Time Altitude Azimuth Distance (km) Brightness Sun altitude
Exits shadow 13:08:35 11° 194° (SSW) 2,624 6.1 -25.5°
Maximum altitude 13:14:29 64° 274° (W) 1,084 4.3 -26.7°
Drops below altitude 10° 13:20:45 10° 355° (N) 2,753 6.8 -28.0°
Sets 13:23:19 0° 358° (N) 3,707 7.5 -28.5°
